Regional Weather Roundup
Issued by NWS Grand Forks, ND

Home | Current Version | Previous Version | Text Only | Print | Product List | Glossary Off
Versions: 1 2 3 4 5 6 7 8 9 10 11 12 13 14 15 16 17 18 19 20 21 22 23 24 25 26 27 28 29 30 31 32 33 34 35 36 37 38 39 40 41 42 43 44 45 46 47 48 49 50

000
ASUS43 KFGF 291231
RWRFGF
PRAIRIE TO PINES  WEATHER ROUNDUP
NATIONAL WEATHER SERVICE EASTERN NORTH DAKOTA/GRAND FORKS ND
700 AM CDT FRI MAY 29 2015

 **SATELLITE DATA USED TO AUGMENT SKY COVER AT AUTOMATED STATIONS**
 *****  WEATHER ACROSS EASTERN NORTH DAKOTA  *****

CITY           SKY/WX    TMP DP  RH WIND       PRES   REMARKS
GRAND FORKS    CLOUDY    46  41  82 N29G37    30.05R
6HR MIN TEMP:  46; 6HR MAX TEMP:  60;

GRAND FRKS AFB CLOUDY    46  39  78 N24G35    30.06R
GRAND FRKS NWS   N/A     43 N/A N/A VRB23       N/A
DEVILS LAKE    CLOUDY    45  34  65 N23G31    30.12R
6HR MIN TEMP:  46; 6HR MAX TEMP:  55;

FARGO          CLOUDY    51  47  86 N26G37    29.97R
WAHPETON ARPT  CLOUDY    52  48  87 N22G29    29.94R
$$

 ***** WEATHER ACROSS CENTRAL AND WESTERN NORTH DAKOTA  *****

CITY           SKY/WX    TMP DP  RH WIND       PRES   REMARKS
BISMARCK       CLOUDY    50  44  80 N17G23    30.13R
6HR MIN TEMP:  50; 6HR MAX TEMP:  61;

MINOT          CLOUDY    46  35  65 N15G24    30.20R
6HR MIN TEMP:  46; 6HR MAX TEMP:  49;

JAMESTOWN      CLOUDY    49  44  83 N22G31    30.05R
6HR MIN TEMP:  49; 6HR MAX TEMP:  64;

MINOT AFB      CLOUDY    46  45  97 N12       30.19R
GARRISON         N/A     47  39  74 N12G22    30.18R
WILLISTON      CLOUDY    45  31  58 NE15      30.27R
6HR MIN TEMP:  44; 6HR MAX TEMP:  50;

DICKINSON      CLOUDY    43  39  86 N16       30.18R
6HR MIN TEMP:  44; 6HR MAX TEMP:  56; 6HR PCP:  0.01;

HETTINGER      CLOUDY    46  43  89 N17       30.17R
6HR MIN TEMP:  46; 6HR MAX TEMP:  58; 6HR PCP: TRACE;

$$

 *****  OTHER AIRPORT OBSERVATIONS IN OUR AREA  *****

CITY           SKY/WX    TMP DP  RH WIND       PRES   REMARKS
WALHALLA         N/A     43  43 100 MISG      30.14R
GRAFTON AIRPOR CLOUDY    45  41  87 N25G31    30.10R
VALLEY CITY AR CLOUDY    48  48 100 N21G32    30.03R
CANDO          CLOUDY    46  39  76 N20G28    30.15R
CAVALIER APRT  NOT AVBL
GWINNER        NOT AVBL
SHEYENNE NWR     N/A     50  49  96 N14       29.95S
ROLLA          CLOUDY    41  39  93 N23G29    30.17R
 ***** THE ABOVE OBSERVATIONS ARE NON NWS ARE NOT QUALITY
       CONTROLLED AND MAY MIS-REPORT RAIN FOR SNOW...
$$

  *****  WEATHER ACROSS NORTHERN MINNESOTA  *****

CITY           SKY/WX    TMP DP  RH WIND       PRES   REMARKS
FLAG ISLAND    CLOUDY    48  45  87 N24G36    29.98R
WARROAD        CLOUDY    45  43  93 NW18G30   30.01R
ROSEAU         CLOUDY    46  41  81 N25       30.01R
HALLOCK        CLOUDY    45  39  81 N22G28    30.08R
THF RVR FALLS  CLOUDY    46  43  87 N18G26    30.01R
6HR MIN TEMP:  48; 6HR MAX TEMP:  63;

BAUDETTE       CLOUDY    50  46  86 NW17G29   29.95R
6HR MIN TEMP:  51; 6HR MAX TEMP:  60;

WASKISH        CLOUDY    54  52  94 NW13G22   29.93R FOG
CROOKSTON      CLOUDY    46  45  93 N25       30.03R
STEPHEN NDAWN    N/A     45  41  87 N24         N/A
GREENBUSH NDAW   N/A     45  43  93 N20         N/A
$$
  *****  WEATHER ACROSS CENTRAL AND WEST MINNESOTA  *****

CITY           SKY/WX    TMP DP  RH WIND       PRES   REMARKS
FOSSTON        CLOUDY    48  46  93 N22       29.97R
BEMIDJI        RAIN      56  55  96 N14G22    29.91R
PARK RAPIDS    CLOUDY    60  58  92 NW7       29.87S
6HR MIN TEMP:  59; 6HR MAX TEMP:  61; 6HR PCP:  0.08;

ELBOW LAKE     PTSUNNY   60  59  98 N8        29.89R
6HR MIN TEMP:  58; 6HR MAX TEMP:  60; 6HR PCP:  0.02;

WADENA         CLOUDY    59  57  94 W3        29.89R
DETROIT LAKES  DRIZZLE   55  54  94 N16G24    29.93R
MOORHEAD       CLOUDY    48  46  93 N29G36    29.98R
FERGUS FALLS   CLOUDY    57  57 100 N12G17    29.91R
MORRIS MN      PTSUNNY   63  61  94 N10       29.87S
STAPLES        CLOUDY    59  57  94 CALM      29.89R
$$
  *****  WEATHER ELSEWHERE ACROSS MINNESOTA  *****

CITY           SKY/WX    TMP DP  RH WIND       PRES   REMARKS
DULUTH         CLOUDY    57  53  86 S8        29.86R
6HR MIN TEMP:  46; 6HR MAX TEMP:  58;

INTRNTL FALLS  CLOUDY    57  55  93 N15       29.87R FOG
6HR MIN TEMP:  57; 6HR MAX TEMP:  60; 6HR PCP:  0.17;

ELY            NOT AVBL
CLOQUET        CLOUDY    52  48  87 CALM      29.87R
WHEATON        DRIZZLE   54  54 100 N17G26    29.93R
BRAINERD       CLOUDY    61  58  90 NW6       29.88R
6HR MIN TEMP:  60; 6HR MAX TEMP:  70;

HIBBING        CLOUDY    55  50  83 CALM      29.86S
6HR MIN TEMP:  50; 6HR MAX TEMP:  57;

ALEXANDRIA     CLOUDY    60  59  96 N12       29.89R
6HR MIN TEMP:  59; 6HR MAX TEMP:  61; 6HR PCP:  0.02;

SAINT CLOUD    CLOUDY    65  62  90 CALM      29.86R
6HR MIN TEMP:  60; 6HR MAX TEMP:  67;

MINNEAPOLIS    PTSUNNY   66  63  90 S3        29.87S
6HR MIN TEMP:  64; 6HR MAX TEMP:  72; 6HR PCP:  0.30;

$$

  *****  WEATHER ACROSS SOUTH DAKOTA  *****

CITY           SKY/WX    TMP DP  RH WIND       PRES   REMARKS
SIOUX FALLS    LGT RAIN  64  63  96 N7        29.85R FOG
6HR MIN TEMP:  64; 6HR MAX TEMP:  67; 6HR PCP:  0.44;

BROOKINGS      CLOUDY    61  57  88 N5        29.89R
WATERTOWN      CLOUDY    59  57  93 N8        29.88R
6HR MIN TEMP:  59; 6HR MAX TEMP:  62; 6HR PCP:  0.06;

HURON            N/A    N/A N/A N/A MISG      29.87R
SISSETON         N/A     58  58 100 N25       29.90R
ABERDEEN       LGT RAIN  58  55  90 N17G26    29.96R
6HR MIN TEMP:  59; 6HR MAX TEMP:  62; 6HR PCP:  0.01;

MITCHELL       CLOUDY    62  60  93 CALM      29.86R
PIERRE         LGT RAIN  56  54  93 N22G31    29.94R
6HR MIN TEMP:  56; 6HR MAX TEMP:  61; 6HR PCP:  1.48;

MOBRIDGE       CLOUDY    54  54 100 N24G31    30.00R
RAPID CITY     LGT RAIN  52  50  93 N25G32    30.10R
6HR MIN TEMP:  52; 6HR MAX TEMP:  59; 6HR PCP:  0.01;

$$

  *****  SOME WEATHER IN NEARBY STATES *****

CITY           SKY/WX    TMP DP  RH WIND       PRES   REMARKS
GLASGOW MT     CLEAR     36  32  85 N3        30.32R
6HR MIN TEMP:  35; 6HR MAX TEMP:  45;

GREAT FALLS MT CLOUDY    45  43  93 SE5       30.28F FOG
6HR MIN TEMP:  45; 6HR MAX TEMP:  45; 6HR PCP:  0.01;

CHEYENNE WY    CLOUDY    48  40  73 N7        30.18R
6HR MIN TEMP:  46; 6HR MAX TEMP:  50;

SCOTTSBLUFF NE MOCLDY    52  50  93 W6        30.10R
6HR MIN TEMP:  49; 6HR MAX TEMP:  55;

OMAHA NE       CLOUDY    66  63  90 S13       29.91R
6HR MIN TEMP:  65; 6HR MAX TEMP:  68;

DES MOINES IA  PTSUNNY   64  61  90 S8        29.92S
6HR MIN TEMP:  63; 6HR MAX TEMP:  65;

DAVENPORT IA   PTSUNNY   69  63  81 S9        29.98R
6HR MIN TEMP:  66; 6HR MAX TEMP:  69; 6HR PCP: TRACE;

CHICAGO IL     PTSUNNY   69  63  81 S5        30.02R
6HR MIN TEMP:  63; 6HR MAX TEMP:  69;

EAU CLAIRE WI  CLOUDY    65  59  81 S8        29.90S
6HR MIN TEMP:  62; 6HR MAX TEMP:  67; 6HR PCP:  0.06;

LA CROSSE WI   MOSUNNY   67  62  84 S8        29.92R
6HR MIN TEMP:  65; 6HR MAX TEMP:  70; 6HR PCP:  0.04;

$$

  *****  SOME NATIONAL WEATHER *****

CITY           SKY/WX    TMP DP  RH WIND       PRES   REMARKS
LA GUARDIA NY  SUNNY     67  54  63 NE8       30.30R
6HR MIN TEMP:  64; 6HR MAX TEMP:  69;

RALEIGH NC     MOSUNNY   71  65  81 SW3       30.25R
6HR MIN TEMP:  66; 6HR MAX TEMP:  71;

ATLANTA GA     PTSUNNY   68  64  88 E6        30.21R
6HR MIN TEMP:  67; 6HR MAX TEMP:  70;

NEW ORLEANS LA MOSUNNY   76  71  85 SE6       30.04S
6HR MIN TEMP:  75; 6HR MAX TEMP:  77;

OKLAHOMA CITY  CLOUDY    65  62  90 SW5       29.97R
6HR MIN TEMP:  64; 6HR MAX TEMP:  69; 6HR PCP:  0.01;

ALBUQUERQUE NM PTCLDY    60  37  42 NW10      30.13R
6HR MIN TEMP:  60; 6HR MAX TEMP:  71;

SALT LAKE CITY CLEAR     52  44  74 SE8       30.16R
6HR MIN TEMP:  51; 6HR MAX TEMP:  58;

LOS ANGELES CA CLOUDY    59  56  89 SE3       29.94S



USA.gov is the U.S. government's official web portal to all federal, state and local government web resources and services.